Year,Month,Day,Hour,Minute,Value (Times are PST for insolation in W/m^2)
2017,06,18,00,00,0.00
2017,06,18,00,01,0.00
2017,06,18,00,02,0.00
2017,06,18,00,03,0.00
2017,06,18,00,04,0.00
2017,06,18,00,05,0.00
2017,06,18,00,06,0.00
2017,06,18,00,07,0.00
2017,06,18,00,08,0.00
2017,06,18,00,09,0.00
2017,06,18,00,10,0.00
2017,06,18,00,11,0.00
2017,06,18,00,12,0.00
2017,06,18,00,13,0.00
2017,06,18,00,14,0.00
2017,06,18,00,15,0.00
2017,06,18,00,16,0.00
2017,06,18,00,17,0.00
2017,06,18,00,18,0.00
2017,06,18,00,19,0.00
2017,06,18,00,20,0.00
2017,06,18,00,21,0.00
2017,06,18,00,22,0.00
2017,06,18,00,23,0.00
2017,06,18,00,24,0.00
2017,06,18,00,25,0.00
2017,06,18,00,26,0.00
2017,06,18,00,27,0.00
2017,06,18,00,28,0.00
2017,06,18,00,29,0.00
2017,06,18,00,30,0.00
2017,06,18,00,31,0.00
2017,06,18,00,32,0.00
2017,06,18,00,33,0.00
2017,06,18,00,34,0.00
2017,06,18,00,35,0.00
2017,06,18,00,36,0.00
2017,06,18,00,37,0.00
2017,06,18,00,38,0.00
2017,06,18,00,39,0.00
2017,06,18,00,40,0.00
2017,06,18,00,41,0.00
2017,06,18,00,42,0.00
2017,06,18,00,43,0.00
2017,06,18,00,44,0.00
2017,06,18,00,45,0.00
2017,06,18,00,46,0.00
2017,06,18,00,47,0.00
2017,06,18,00,48,0.00
2017,06,18,00,49,0.00
2017,06,18,00,50,0.00
2017,06,18,00,51,0.00
2017,06,18,00,52,0.00
2017,06,18,00,53,0.00
2017,06,18,00,54,0.00
2017,06,18,00,55,0.00
2017,06,18,00,56,0.00
2017,06,18,00,57,0.00
2017,06,18,00,58,0.00
2017,06,18,00,59,0.00
2017,06,18,01,00,0.00
2017,06,18,01,01,0.00
2017,06,18,01,02,0.00
2017,06,18,01,03,0.00
2017,06,18,01,04,0.00
2017,06,18,01,05,0.00
2017,06,18,01,06,0.00
2017,06,18,01,07,0.00
2017,06,18,01,08,0.00
2017,06,18,01,09,0.00
2017,06,18,01,10,0.00
2017,06,18,01,11,0.00
2017,06,18,01,12,0.00
2017,06,18,01,13,0.00
2017,06,18,01,14,0.00
2017,06,18,01,15,0.00
2017,06,18,01,16,0.00
2017,06,18,01,17,0.00
2017,06,18,01,18,0.00
2017,06,18,01,19,0.00
2017,06,18,01,20,0.00
2017,06,18,01,21,0.00
2017,06,18,01,22,0.00
2017,06,18,01,23,0.00
2017,06,18,01,24,0.00
2017,06,18,01,25,0.00
2017,06,18,01,26,0.00
2017,06,18,01,27,0.00
2017,06,18,01,28,0.00
2017,06,18,01,29,0.00
2017,06,18,01,30,0.00
2017,06,18,01,31,0.00
2017,06,18,01,32,0.00
2017,06,18,01,33,0.00
2017,06,18,01,34,0.00
2017,06,18,01,35,0.00
2017,06,18,01,36,0.00
2017,06,18,01,37,0.00
2017,06,18,01,38,0.00
2017,06,18,01,39,0.00
2017,06,18,01,40,0.00
2017,06,18,01,41,0.00
2017,06,18,01,42,0.00
2017,06,18,01,43,0.00
2017,06,18,01,44,0.00
2017,06,18,01,45,0.00
2017,06,18,01,46,0.00
2017,06,18,01,47,0.00
2017,06,18,01,48,0.00
2017,06,18,01,49,0.00
2017,06,18,01,50,0.00
2017,06,18,01,51,0.00
2017,06,18,01,52,0.00
2017,06,18,01,53,0.00
2017,06,18,01,54,0.00
2017,06,18,01,55,0.00
2017,06,18,01,56,0.00
2017,06,18,01,57,0.00
2017,06,18,01,58,0.00
2017,06,18,01,59,0.00
2017,06,18,02,00,0.00
2017,06,18,02,01,0.00
2017,06,18,02,02,0.00
2017,06,18,02,03,0.00
2017,06,18,02,04,0.00
2017,06,18,02,05,0.00
2017,06,18,02,06,0.00
2017,06,18,02,07,0.00
2017,06,18,02,08,0.00
2017,06,18,02,09,0.00
2017,06,18,02,10,0.00
2017,06,18,02,11,0.00
2017,06,18,02,12,0.00
2017,06,18,02,13,0.00
2017,06,18,02,14,0.00
2017,06,18,02,15,0.00
2017,06,18,02,16,0.00
2017,06,18,02,17,0.00
2017,06,18,02,18,0.00
2017,06,18,02,19,0.00
2017,06,18,02,20,0.00
2017,06,18,02,21,0.00
2017,06,18,02,22,0.00
2017,06,18,02,23,0.00
2017,06,18,02,24,0.00
2017,06,18,02,25,0.00
2017,06,18,02,26,0.00
2017,06,18,02,27,0.00
2017,06,18,02,28,0.00
2017,06,18,02,29,0.00
2017,06,18,02,30,0.00
2017,06,18,02,31,0.00
2017,06,18,02,32,0.00
2017,06,18,02,33,0.00
2017,06,18,02,34,0.00
2017,06,18,02,35,0.00
2017,06,18,02,36,0.00
2017,06,18,02,37,0.00
2017,06,18,02,38,0.00
2017,06,18,02,39,0.00
2017,06,18,02,40,0.00
2017,06,18,02,41,0.00
2017,06,18,02,42,0.00
2017,06,18,02,43,0.00
2017,06,18,02,44,0.00
2017,06,18,02,45,0.00
2017,06,18,02,46,0.00
2017,06,18,02,47,0.00
2017,06,18,02,48,0.00
2017,06,18,02,49,0.00
2017,06,18,02,50,0.00
2017,06,18,02,51,0.00
2017,06,18,02,52,0.00
2017,06,18,02,53,0.00
2017,06,18,02,54,0.00
2017,06,18,02,55,0.00
2017,06,18,02,56,0.00
2017,06,18,02,57,0.00
2017,06,18,02,58,0.00
2017,06,18,02,59,0.00
2017,06,18,03,00,0.00
2017,06,18,03,01,0.00
2017,06,18,03,02,0.00
2017,06,18,03,03,0.00
2017,06,18,03,04,0.00
2017,06,18,03,05,0.00
2017,06,18,03,06,0.00
2017,06,18,03,07,0.00
2017,06,18,03,08,0.00
2017,06,18,03,09,0.00
2017,06,18,03,10,0.00
2017,06,18,03,11,0.00
2017,06,18,03,12,0.00
2017,06,18,03,13,0.00
2017,06,18,03,14,0.00
2017,06,18,03,15,0.00
2017,06,18,03,16,0.00
2017,06,18,03,17,0.00
2017,06,18,03,18,0.00
2017,06,18,03,19,0.00
2017,06,18,03,20,0.00
2017,06,18,03,21,0.00
2017,06,18,03,22,0.00
2017,06,18,03,23,0.00
2017,06,18,03,24,0.00
2017,06,18,03,25,0.00
2017,06,18,03,26,0.00
2017,06,18,03,27,0.00
2017,06,18,03,28,0.00
2017,06,18,03,29,0.00
2017,06,18,03,30,0.00
2017,06,18,03,31,0.00
2017,06,18,03,32,0.00
2017,06,18,03,33,0.00
2017,06,18,03,34,0.00
2017,06,18,03,35,0.00
2017,06,18,03,36,0.00
2017,06,18,03,37,0.00
2017,06,18,03,38,0.00
2017,06,18,03,39,0.00
2017,06,18,03,40,0.00
2017,06,18,03,41,0.00
2017,06,18,03,42,0.00
2017,06,18,03,43,0.00
2017,06,18,03,44,0.00
2017,06,18,03,45,0.00
2017,06,18,03,46,0.00
2017,06,18,03,47,0.00
2017,06,18,03,48,0.00
2017,06,18,03,49,0.00
2017,06,18,03,50,0.00
2017,06,18,03,51,0.00
2017,06,18,03,52,0.00
2017,06,18,03,53,0.00
2017,06,18,03,54,0.00
2017,06,18,03,55,0.00
2017,06,18,03,56,0.00
2017,06,18,03,57,0.00
2017,06,18,03,58,0.00
2017,06,18,03,59,0.00
2017,06,18,04,00,0.00
2017,06,18,04,01,0.00
2017,06,18,04,02,0.00
2017,06,18,04,03,0.00
2017,06,18,04,04,0.00
2017,06,18,04,05,0.00
2017,06,18,04,06,0.00
2017,06,18,04,07,0.00
2017,06,18,04,08,0.00
2017,06,18,04,09,0.00
2017,06,18,04,10,0.00
2017,06,18,04,11,0.00
2017,06,18,04,12,0.00
2017,06,18,04,13,0.00
2017,06,18,04,14,0.00
2017,06,18,04,15,0.00
2017,06,18,04,16,0.00
2017,06,18,04,17,0.00
2017,06,18,04,18,0.00
2017,06,18,04,19,0.00
2017,06,18,04,20,0.00
2017,06,18,04,21,0.00
2017,06,18,04,22,0.00
2017,06,18,04,23,0.00
2017,06,18,04,24,0.00
2017,06,18,04,25,0.00
2017,06,18,04,26,0.00
2017,06,18,04,27,0.00
2017,06,18,04,28,0.00
2017,06,18,04,29,0.00
2017,06,18,04,30,0.00
2017,06,18,04,31,0.00
2017,06,18,04,32,0.00
2017,06,18,04,33,0.00
2017,06,18,04,34,0.00
2017,06,18,04,35,0.00
2017,06,18,04,36,0.00
2017,06,18,04,37,0.00
2017,06,18,04,38,0.00
2017,06,18,04,39,0.00
2017,06,18,04,40,0.00
2017,06,18,04,41,0.00
2017,06,18,04,42,0.00
2017,06,18,04,43,0.00
2017,06,18,04,44,0.00
2017,06,18,04,45,0.00
2017,06,18,04,46,0.00
2017,06,18,04,47,0.00
2017,06,18,04,48,0.00
2017,06,18,04,49,0.00
2017,06,18,04,50,0.00
2017,06,18,04,51,0.00
2017,06,18,04,52,0.00
2017,06,18,04,53,0.00
2017,06,18,04,54,0.00
2017,06,18,04,55,0.00
2017,06,18,04,56,0.00
2017,06,18,04,57,0.00
2017,06,18,04,58,0.00
2017,06,18,04,59,0.00
2017,06,18,05,00,0.00
2017,06,18,05,01,0.00
2017,06,18,05,02,0.00
2017,06,18,05,03,0.00
2017,06,18,05,04,0.00
2017,06,18,05,05,0.00
2017,06,18,05,06,0.00
2017,06,18,05,07,0.00
2017,06,18,05,08,0.00
2017,06,18,05,09,0.00
2017,06,18,05,10,0.00
2017,06,18,05,11,0.00
2017,06,18,05,12,0.00
2017,06,18,05,13,0.00
2017,06,18,05,14,0.00
2017,06,18,05,15,0.00
2017,06,18,05,16,0.00
2017,06,18,05,17,0.00
2017,06,18,05,18,0.00
2017,06,18,05,19,0.00
2017,06,18,05,20,0.00
2017,06,18,05,21,0.00
2017,06,18,05,22,0.00
2017,06,18,05,23,0.00
2017,06,18,05,24,0.00
2017,06,18,05,25,0.00
2017,06,18,05,26,0.00
2017,06,18,05,27,0.00
2017,06,18,05,28,0.00
2017,06,18,05,29,0.00
2017,06,18,05,30,0.00
2017,06,18,05,31,0.00
2017,06,18,05,32,0.00
2017,06,18,05,33,0.00
2017,06,18,05,34,0.00
2017,06,18,05,35,0.00
2017,06,18,05,36,0.00
2017,06,18,05,37,3.40
2017,06,18,05,38,5.00
2017,06,18,05,39,5.00
2017,06,18,05,40,5.00
2017,06,18,05,41,5.00
2017,06,18,05,42,5.90
2017,06,18,05,43,7.00
2017,06,18,05,44,7.00
2017,06,18,05,45,7.00
2017,06,18,05,46,5.10
2017,06,18,05,47,5.00
2017,06,18,05,48,5.00
2017,06,18,05,49,5.00
2017,06,18,05,50,6.10
2017,06,18,05,51,7.00
2017,06,18,05,52,7.00
2017,06,18,05,53,7.00
2017,06,18,05,54,7.00
2017,06,18,05,55,7.00
2017,06,18,05,56,7.00
2017,06,18,05,57,7.00
2017,06,18,05,58,7.00
2017,06,18,05,59,7.00
2017,06,18,06,00,7.00
2017,06,18,06,01,7.00
2017,06,18,06,02,7.00
2017,06,18,06,03,7.00
2017,06,18,06,04,7.00
2017,06,18,06,05,7.00
2017,06,18,06,06,8.60
2017,06,18,06,07,9.00
2017,06,18,06,08,9.00
2017,06,18,06,09,9.00
2017,06,18,06,10,9.00
2017,06,18,06,11,10.10
2017,06,18,06,12,11.00
2017,06,18,06,13,11.00
2017,06,18,06,14,11.10
2017,06,18,06,15,12.00
2017,06,18,06,16,12.00
2017,06,18,06,17,12.00
2017,06,18,06,18,13.10
2017,06,18,06,19,15.40
2017,06,18,06,20,17.60
2017,06,18,06,21,18.90
2017,06,18,06,22,19.00
2017,06,18,06,23,19.00
2017,06,18,06,24,18.60
2017,06,18,06,25,16.90
2017,06,18,06,26,16.00
2017,06,18,06,27,12.70
2017,06,18,06,28,12.00
2017,06,18,06,29,11.80
2017,06,18,06,30,11.00
2017,06,18,06,31,11.00
2017,06,18,06,32,11.00
2017,06,18,06,33,11.00
2017,06,18,06,34,11.00
2017,06,18,06,35,11.00
2017,06,18,06,36,11.00
2017,06,18,06,37,11.00
2017,06,18,06,38,11.40
2017,06,18,06,39,12.00
2017,06,18,06,40,14.80
2017,06,18,06,41,16.00
2017,06,18,06,42,16.00
2017,06,18,06,43,16.30
2017,06,18,06,44,18.30
2017,06,18,06,45,19.90
2017,06,18,06,46,22.10
2017,06,18,06,47,23.00
2017,06,18,06,48,24.70
2017,06,18,06,49,25.90
2017,06,18,06,50,26.00
2017,06,18,06,51,25.70
2017,06,18,06,52,25.00
2017,06,18,06,53,25.00
2017,06,18,06,54,25.00
2017,06,18,06,55,25.00
2017,06,18,06,56,25.10
2017,06,18,06,57,26.00
2017,06,18,06,58,26.00
2017,06,18,06,59,26.00
2017,06,18,07,00,26.00
2017,06,18,07,01,26.00
2017,06,18,07,02,27.70
2017,06,18,07,03,28.00
2017,06,18,07,04,28.00
2017,06,18,07,05,28.60
2017,06,18,07,06,30.00
2017,06,18,07,07,31.70
2017,06,18,07,08,34.40
2017,06,18,07,09,36.70
2017,06,18,07,10,38.80
2017,06,18,07,11,37.00
2017,06,18,07,12,37.00
2017,06,18,07,13,37.00
2017,06,18,07,14,37.00
2017,06,18,07,15,37.00
2017,06,18,07,16,38.70
2017,06,18,07,17,37.10
2017,06,18,07,18,37.40
2017,06,18,07,19,39.30
2017,06,18,07,20,41.70
2017,06,18,07,21,44.00
2017,06,18,07,22,41.20
2017,06,18,07,23,39.20
2017,06,18,07,24,37.10
2017,06,18,07,25,37.40
2017,06,18,07,26,38.40
2017,06,18,07,27,36.20
2017,06,18,07,28,33.90
2017,06,18,07,29,33.00
2017,06,18,07,30,34.60
2017,06,18,07,31,38.90
2017,06,18,07,32,43.00
2017,06,18,07,33,47.60
2017,06,18,07,34,49.00
2017,06,18,07,35,47.90
2017,06,18,07,36,47.00
2017,06,18,07,37,48.70
2017,06,18,07,38,51.00
2017,06,18,07,39,53.00
2017,06,18,07,40,53.00
2017,06,18,07,41,53.00
2017,06,18,07,42,51.90
2017,06,18,07,43,48.30
2017,06,18,07,44,44.60
2017,06,18,07,45,42.10
2017,06,18,07,46,40.30
2017,06,18,07,47,42.60
2017,06,18,07,48,44.00
2017,06,18,07,49,42.90
2017,06,18,07,50,42.00
2017,06,18,07,51,42.00
2017,06,18,07,52,42.30
2017,06,18,07,53,48.20
2017,06,18,07,54,56.50
2017,06,18,07,55,62.40
2017,06,18,07,56,63.00
2017,06,18,07,57,63.00
2017,06,18,07,58,63.00
2017,06,18,07,59,61.90
2017,06,18,08,00,60.40
2017,06,18,08,01,62.90
2017,06,18,08,02,66.70
2017,06,18,08,03,69.00
2017,06,18,08,04,67.60
2017,06,18,08,05,65.40
2017,06,18,08,06,63.10
2017,06,18,08,07,61.70
2017,06,18,08,08,58.80
2017,06,18,08,09,55.10
2017,06,18,08,10,52.20
2017,06,18,08,11,51.00
2017,06,18,08,12,49.40
2017,06,18,08,13,49.00
2017,06,18,08,14,49.40
2017,06,18,08,15,51.00
2017,06,18,08,16,51.90
2017,06,18,08,17,53.60
2017,06,18,08,18,58.10
2017,06,18,08,19,64.00
2017,06,18,08,20,68.70
2017,06,18,08,21,69.00
2017,06,18,08,22,69.30
2017,06,18,08,23,70.00
2017,06,18,08,24,69.40
2017,06,18,08,25,66.20
2017,06,18,08,26,63.30
2017,06,18,08,27,63.00
2017,06,18,08,28,63.30
2017,06,18,08,29,65.60
2017,06,18,08,30,66.10
2017,06,18,08,31,65.00
2017,06,18,08,32,65.00
2017,06,18,08,33,65.00
2017,06,18,08,34,69.10
2017,06,18,08,35,74.60
2017,06,18,08,36,78.70
2017,06,18,08,37,83.00
2017,06,18,08,38,83.60
2017,06,18,08,39,84.00
2017,06,18,08,40,83.20
2017,06,18,08,41,86.10
2017,06,18,08,42,91.00
2017,06,18,08,43,96.60
2017,06,18,08,44,99.10
2017,06,18,08,45,94.10
2017,06,18,08,46,87.60
2017,06,18,08,47,83.50
2017,06,18,08,48,83.10
2017,06,18,08,49,84.00
2017,06,18,08,50,83.10
2017,06,18,08,51,81.00
2017,06,18,08,52,83.80
2017,06,18,08,53,89.40
2017,06,18,08,54,91.00
2017,06,18,08,55,90.10
2017,06,18,08,56,90.00
2017,06,18,08,57,90.30
2017,06,18,08,58,91.90
2017,06,18,08,59,93.00
2017,06,18,09,00,91.60
2017,06,18,09,01,90.20
2017,06,18,09,02,90.00
2017,06,18,09,03,90.50
2017,06,18,09,04,94.20
2017,06,18,09,05,97.40
2017,06,18,09,06,97.40
2017,06,18,09,07,94.20
2017,06,18,09,08,91.40
2017,06,18,09,09,91.00
2017,06,18,09,10,91.00
2017,06,18,09,11,90.70
2017,06,18,09,12,88.30
2017,06,18,09,13,84.90
2017,06,18,09,14,81.90
2017,06,18,09,15,79.40
2017,06,18,09,16,76.30
2017,06,18,09,17,78.20
2017,06,18,09,18,83.30
2017,06,18,09,19,84.00
2017,06,18,09,20,84.00
2017,06,18,09,21,88.10
2017,06,18,09,22,95.60
2017,06,18,09,23,104.00
2017,06,18,09,24,112.00
2017,06,18,09,25,117.30
2017,06,18,09,26,120.40
2017,06,18,09,27,121.00
2017,06,18,09,28,123.70
2017,06,18,09,29,126.60
2017,06,18,09,30,130.10
2017,06,18,09,31,133.60
2017,06,18,09,32,131.40
2017,06,18,09,33,131.70
2017,06,18,09,34,134.60
2017,06,18,09,35,137.80
2017,06,18,09,36,137.40
2017,06,18,09,37,132.10
2017,06,18,09,38,124.30
2017,06,18,09,39,120.70
2017,06,18,09,40,118.20
2017,06,18,09,41,114.90
2017,06,18,09,42,111.90
2017,06,18,09,43,106.00
2017,06,18,09,44,107.10
2017,06,18,09,45,113.90
2017,06,18,09,46,120.80
2017,06,18,09,47,128.30
2017,06,18,09,48,131.10
2017,06,18,09,49,133.40
2017,06,18,09,50,134.00
2017,06,18,09,51,128.10
2017,06,18,09,52,119.00
2017,06,18,09,53,113.10
2017,06,18,09,54,108.00
2017,06,18,09,55,100.10
2017,06,18,09,56,92.20
2017,06,18,09,57,85.00
2017,06,18,09,58,79.10
2017,06,18,09,59,77.30
2017,06,18,10,00,79.60
2017,06,18,10,01,82.30
2017,06,18,10,02,85.10
2017,06,18,10,03,88.80
2017,06,18,10,04,94.10
2017,06,18,10,05,96.70
2017,06,18,10,06,94.60
2017,06,18,10,07,92.40
2017,06,18,10,08,91.90
2017,06,18,10,09,95.20
2017,06,18,10,10,97.70
2017,06,18,10,11,101.30
2017,06,18,10,12,104.90
2017,06,18,10,13,109.90
2017,06,18,10,14,116.20
2017,06,18,10,15,123.70
2017,06,18,10,16,124.70
2017,06,18,10,17,119.60
2017,06,18,10,18,114.70
2017,06,18,10,19,119.90
2017,06,18,10,20,125.50
2017,06,18,10,21,129.90
2017,06,18,10,22,137.10
2017,06,18,10,23,145.40
2017,06,18,10,24,155.20
2017,06,18,10,25,159.70
2017,06,18,10,26,153.00
2017,06,18,10,27,145.30
2017,06,18,10,28,142.60
2017,06,18,10,29,145.80
2017,06,18,10,30,151.90
2017,06,18,10,31,160.40
2017,06,18,10,32,163.00
2017,06,18,10,33,180.40
2017,06,18,10,34,191.20
2017,06,18,10,35,197.90
2017,06,18,10,36,199.60
2017,06,18,10,37,195.70
2017,06,18,10,38,193.00
2017,06,18,10,39,192.20
2017,06,18,10,40,188.20
2017,06,18,10,41,183.80
2017,06,18,10,42,173.30
2017,06,18,10,43,154.50
2017,06,18,10,44,136.00
2017,06,18,10,45,126.60
2017,06,18,10,46,125.00
2017,06,18,10,47,119.90
2017,06,18,10,48,112.60
2017,06,18,10,49,111.60
2017,06,18,10,50,115.10
2017,06,18,10,51,119.70
2017,06,18,10,52,122.40
2017,06,18,10,53,127.10
2017,06,18,10,54,134.60
2017,06,18,10,55,137.30
2017,06,18,10,56,139.00
2017,06,18,10,57,141.10
2017,06,18,10,58,146.20
2017,06,18,10,59,148.00
2017,06,18,11,00,146.40
2017,06,18,11,01,144.10
2017,06,18,11,02,144.00
2017,06,18,11,03,144.60
2017,06,18,11,04,144.30
2017,06,18,11,05,143.10
2017,06,18,11,06,150.20
2017,06,18,11,07,157.10
2017,06,18,11,08,163.30
2017,06,18,11,09,172.40
2017,06,18,11,10,173.40
2017,06,18,11,11,171.60
2017,06,18,11,12,171.00
2017,06,18,11,13,171.70
2017,06,18,11,14,172.00
2017,06,18,11,15,176.10
2017,06,18,11,16,182.40
2017,06,18,11,17,189.20
2017,06,18,11,18,192.00
2017,06,18,11,19,193.70
2017,06,18,11,20,195.00
2017,06,18,11,21,193.40
2017,06,18,11,22,189.80
2017,06,18,11,23,177.80
2017,06,18,11,24,171.10
2017,06,18,11,25,168.20
2017,06,18,11,26,168.10
2017,06,18,11,27,170.40
2017,06,18,11,28,171.00
2017,06,18,11,29,170.90
2017,06,18,11,30,168.70
2017,06,18,11,31,165.40
2017,06,18,11,32,160.20
2017,06,18,11,33,156.90
2017,06,18,11,34,157.40
2017,06,18,11,35,158.00
2017,06,18,11,36,160.20
2017,06,18,11,37,170.60
2017,06,18,11,38,178.80
2017,06,18,11,39,181.80
2017,06,18,11,40,184.10
2017,06,18,11,41,185.70
2017,06,18,11,42,187.70
2017,06,18,11,43,187.80
2017,06,18,11,44,184.30
2017,06,18,11,45,180.40
2017,06,18,11,46,179.90
2017,06,18,11,47,184.90
2017,06,18,11,48,192.80
2017,06,18,11,49,204.10
2017,06,18,11,50,206.50
2017,06,18,11,51,220.50
2017,06,18,11,52,224.20
2017,06,18,11,53,224.30
2017,06,18,11,54,219.30
2017,06,18,11,55,223.90
2017,06,18,11,56,231.00
2017,06,18,11,57,238.80
2017,06,18,11,58,243.00
2017,06,18,11,59,241.90
2017,06,18,12,00,237.80
2017,06,18,12,01,231.00
2017,06,18,12,02,222.20
2017,06,18,12,03,216.80
2017,06,18,12,04,213.20
2017,06,18,12,05,214.40
2017,06,18,12,06,222.20
2017,06,18,12,07,225.00
2017,06,18,12,08,222.20
2017,06,18,12,09,217.30
2017,06,18,12,10,208.90
2017,06,18,12,11,202.10
2017,06,18,12,12,198.70
2017,06,18,12,13,197.60
2017,06,18,12,14,201.20
2017,06,18,12,15,206.90
2017,06,18,12,16,214.90
2017,06,18,12,17,223.60
2017,06,18,12,18,228.90
2017,06,18,12,19,232.00
2017,06,18,12,20,232.60
2017,06,18,12,21,236.90
2017,06,18,12,22,246.00
2017,06,18,12,23,253.40
2017,06,18,12,24,256.70
2017,06,18,12,25,258.10
2017,06,18,12,26,263.30
2017,06,18,12,27,259.40
2017,06,18,12,28,258.00
2017,06,18,12,29,258.00
2017,06,18,12,30,253.40
2017,06,18,12,31,245.40
2017,06,18,12,32,248.00
2017,06,18,12,33,257.90
2017,06,18,12,34,262.00
2017,06,18,12,35,257.40
2017,06,18,12,36,246.60
2017,06,18,12,37,240.20
2017,06,18,12,38,236.50
2017,06,18,12,39,232.40
2017,06,18,12,40,241.80
2017,06,18,12,41,257.80
2017,06,18,12,42,267.10
2017,06,18,12,43,278.70
2017,06,18,12,44,301.30
2017,06,18,12,45,330.40
2017,06,18,12,46,353.70
2017,06,18,12,47,355.30
2017,06,18,12,48,352.00
2017,06,18,12,49,329.30
2017,06,18,12,50,304.70
2017,06,18,12,51,292.40
2017,06,18,12,52,290.00
2017,06,18,12,53,295.60
2017,06,18,12,54,309.20
2017,06,18,12,55,316.40
2017,06,18,12,56,327.40
2017,06,18,12,57,341.90
2017,06,18,12,58,340.90
2017,06,18,12,59,329.10
2017,06,18,13,00,321.60
2017,06,18,13,01,308.50
2017,06,18,13,02,295.30
2017,06,18,13,03,287.00
2017,06,18,13,04,291.00
2017,06,18,13,05,299.50
2017,06,18,13,06,306.80
2017,06,18,13,07,302.10
2017,06,18,13,08,297.70
2017,06,18,13,09,304.10
2017,06,18,13,10,313.10
2017,06,18,13,11,314.30
2017,06,18,13,12,311.60
2017,06,18,13,13,305.40
2017,06,18,13,14,295.10
2017,06,18,13,15,286.60
2017,06,18,13,16,279.40
2017,06,18,13,17,276.00
2017,06,18,13,18,278.80
2017,06,18,13,19,283.80
2017,06,18,13,20,289.10
2017,06,18,13,21,296.80
2017,06,18,13,22,304.70
2017,06,18,13,23,309.60
2017,06,18,13,24,315.20
2017,06,18,13,25,318.00
2017,06,18,13,26,325.60
2017,06,18,13,27,327.30
2017,06,18,13,28,313.40
2017,06,18,13,29,312.20
2017,06,18,13,30,320.20
2017,06,18,13,31,329.00
2017,06,18,13,32,335.20
2017,06,18,13,33,331.90
2017,06,18,13,34,327.60
2017,06,18,13,35,334.30
2017,06,18,13,36,345.50
2017,06,18,13,37,343.00
2017,06,18,13,38,326.00
2017,06,18,13,39,318.00
2017,06,18,13,40,327.70
2017,06,18,13,41,345.20
2017,06,18,13,42,351.60
2017,06,18,13,43,341.60
2017,06,18,13,44,320.70
2017,06,18,13,45,305.60
2017,06,18,13,46,294.00
2017,06,18,13,47,291.40
2017,06,18,13,48,305.10
2017,06,18,13,49,335.70
2017,06,18,13,50,359.50
2017,06,18,13,51,350.50
2017,06,18,13,52,330.40
2017,06,18,13,53,324.10
2017,06,18,13,54,328.40
2017,06,18,13,55,337.40
2017,06,18,13,56,349.60
2017,06,18,13,57,355.70
2017,06,18,13,58,357.10
2017,06,18,13,59,346.70
2017,06,18,14,00,330.80
2017,06,18,14,01,322.90
2017,06,18,14,02,324.50
2017,06,18,14,03,334.10
2017,06,18,14,04,345.20
2017,06,18,14,05,343.80
2017,06,18,14,06,336.80
2017,06,18,14,07,332.80
2017,06,18,14,08,330.60
2017,06,18,14,09,330.00
2017,06,18,14,10,329.90
2017,06,18,14,11,327.10
2017,06,18,14,12,315.20
2017,06,18,14,13,307.70
2017,06,18,14,14,303.10
2017,06,18,14,15,296.90
2017,06,18,14,16,285.50
2017,06,18,14,17,258.20
2017,06,18,14,18,234.40
2017,06,18,14,19,227.00
2017,06,18,14,20,227.00
2017,06,18,14,21,227.00
2017,06,18,14,22,257.30
2017,06,18,14,23,276.80
2017,06,18,14,24,279.10
2017,06,18,14,25,283.30
2017,06,18,14,26,284.40
2017,06,18,14,27,283.00
2017,06,18,14,28,281.90
2017,06,18,14,29,274.80
2017,06,18,14,30,263.70
2017,06,18,14,31,258.00
2017,06,18,14,32,252.50
2017,06,18,14,33,249.40
2017,06,18,14,34,246.20
2017,06,18,14,35,244.00
2017,06,18,14,36,246.80
2017,06,18,14,37,253.80
2017,06,18,14,38,263.70
2017,06,18,14,39,270.20
2017,06,18,14,40,281.60
2017,06,18,14,41,303.40
2017,06,18,14,42,325.90
2017,06,18,14,43,340.20
2017,06,18,14,44,343.00
2017,06,18,14,45,338.80
2017,06,18,14,46,331.60
2017,06,18,14,47,331.90
2017,06,18,14,48,336.00
2017,06,18,14,49,331.00
2017,06,18,14,50,318.90
2017,06,18,14,51,304.70
2017,06,18,14,52,298.60
2017,06,18,14,53,288.60
2017,06,18,14,54,283.60
2017,06,18,14,55,286.30
2017,06,18,14,56,289.10
2017,06,18,14,57,291.30
2017,06,18,14,58,292.00
2017,06,18,14,59,288.20
2017,06,18,15,00,286.70
2017,06,18,15,01,285.00
2017,06,18,15,02,285.80
2017,06,18,15,03,290.90
2017,06,18,15,04,298.80
2017,06,18,15,05,303.40
2017,06,18,15,06,307.90
2017,06,18,15,07,311.90
2017,06,18,15,08,315.70
2017,06,18,15,09,311.00
2017,06,18,15,10,301.00
2017,06,18,15,11,295.60
2017,06,18,15,12,295.00
2017,06,18,15,13,291.90
2017,06,18,15,14,280.60
2017,06,18,15,15,264.40
2017,06,18,15,16,249.30
2017,06,18,15,17,244.00
2017,06,18,15,18,248.10
2017,06,18,15,19,255.60
2017,06,18,15,20,263.70
2017,06,18,15,21,269.30
2017,06,18,15,22,269.80
2017,06,18,15,23,266.10
2017,06,18,15,24,264.40
2017,06,18,15,25,262.60
2017,06,18,15,26,258.70
2017,06,18,15,27,254.90
2017,06,18,15,28,250.10
2017,06,18,15,29,245.10
2017,06,18,15,30,241.30
2017,06,18,15,31,237.30
2017,06,18,15,32,238.10
2017,06,18,15,33,243.00
2017,06,18,15,34,251.10
2017,06,18,15,35,260.70
2017,06,18,15,36,264.00
2017,06,18,15,37,262.30
2017,06,18,15,38,258.30
2017,06,18,15,39,257.00
2017,06,18,15,40,261.10
2017,06,18,15,41,269.10
2017,06,18,15,42,279.60
2017,06,18,15,43,290.10
2017,06,18,15,44,300.70
2017,06,18,15,45,309.90
2017,06,18,15,46,313.00
2017,06,18,15,47,318.80
2017,06,18,15,48,325.60
2017,06,18,15,49,341.40
2017,06,18,15,50,361.30
2017,06,18,15,51,373.10
2017,06,18,15,52,374.30
2017,06,18,15,53,368.90
2017,06,18,15,54,368.70
2017,06,18,15,55,361.00
2017,06,18,15,56,368.10
2017,06,18,15,57,377.40
2017,06,18,15,58,371.90
2017,06,18,15,59,368.90
2017,06,18,16,00,377.20
2017,06,18,16,01,374.20
2017,06,18,16,02,362.40
2017,06,18,16,03,352.50
2017,06,18,16,04,350.90
2017,06,18,16,05,355.70
2017,06,18,16,06,363.10
2017,06,18,16,07,368.10
2017,06,18,16,08,361.60
2017,06,18,16,09,345.60
2017,06,18,16,10,329.10
2017,06,18,16,11,307.20
2017,06,18,16,12,283.40
2017,06,18,16,13,271.20
2017,06,18,16,14,265.60
2017,06,18,16,15,259.00
2017,06,18,16,16,250.10
2017,06,18,16,17,241.90
2017,06,18,16,18,236.10
2017,06,18,16,19,234.00
2017,06,18,16,20,235.70
2017,06,18,16,21,241.10
2017,06,18,16,22,239.80
2017,06,18,16,23,232.00
2017,06,18,16,24,224.20
2017,06,18,16,25,220.10
2017,06,18,16,26,215.90
2017,06,18,16,27,208.00
2017,06,18,16,28,199.20
2017,06,18,16,29,191.20
2017,06,18,16,30,182.80
2017,06,18,16,31,174.40
2017,06,18,16,32,164.80
2017,06,18,16,33,158.30
2017,06,18,16,34,155.40
2017,06,18,16,35,152.20
2017,06,18,16,36,148.60
2017,06,18,16,37,144.30
2017,06,18,16,38,144.40
2017,06,18,16,39,146.60
2017,06,18,16,40,148.40
2017,06,18,16,41,150.10
2017,06,18,16,42,152.40
2017,06,18,16,43,153.00
2017,06,18,16,44,154.90
2017,06,18,16,45,155.00
2017,06,18,16,46,153.90
2017,06,18,16,47,150.20
2017,06,18,16,48,149.00
2017,06,18,16,49,146.90
2017,06,18,16,50,146.00
2017,06,18,16,51,144.10
2017,06,18,16,52,143.70
2017,06,18,16,53,141.70
2017,06,18,16,54,140.10
2017,06,18,16,55,137.90
2017,06,18,16,56,135.00
2017,06,18,16,57,132.40
2017,06,18,16,58,128.10
2017,06,18,16,59,124.30
2017,06,18,17,00,121.00
2017,06,18,17,01,121.90
2017,06,18,17,02,125.20
2017,06,18,17,03,127.70
2017,06,18,17,04,129.70
2017,06,18,17,05,133.80
2017,06,18,17,06,135.70
2017,06,18,17,07,139.90
2017,06,18,17,08,142.80
2017,06,18,17,09,146.20
2017,06,18,17,10,148.70
2017,06,18,17,11,152.30
2017,06,18,17,12,155.00
2017,06,18,17,13,156.30
2017,06,18,17,14,158.60
2017,06,18,17,15,160.90